Погода в Росстанях

Россия / Орловская область     52°20′40″N   37°31′14″E
темп.,
°C
ветер,
м/с
пор.,
м/с
влажн.,
%
обл.,
%
осадки,
мм/ч
давл.,
гПа
погр.,
м
18 января, вт
вт1800:00−2ююз71595100 0.3 992619
03:00−2ююз61294100 0.4 992496
06:00−1юз4798100 0.6 991384
09:00−8юз2297100 0.8 99526
12:00−5ююз1196100 0.0 99778
15:00−5св1197100 0.1 100026
18:00−7с3598100 0.2 1004155
21:00−5ссв71394100 0.6 1007462
19 января, ср
ср1900:00−7с71495100 1.1 1012528
03:00−8с61395100 2.6 1015502
06:00−11с6129295 0.6 1017349
09:00−16ссз389658 0.7 1021127
12:00−13ссз3794100 0.0 1021176
15:00−12сз24945 0.0 102193
18:00−19з1110050 0.0 10229
21:00−21зюз2210056 0.0 10229
20 января, чт
чт2000:00
03:00−20ююз349914 0.0 102143
06:00−18ююз37975 0.0 101991
09:00
12:00−13ю5129176 0.0 1018274
15:00−11ю6148862 0.0 1016367
18:00−11ю7158846 0.0 1015326
21:00−10ю71688100 0.0 1014391
21 января, пт
пт2100:00−8ю71688100 0.1 1013505
03:00−7ююв71586100 0.1 1011496
06:00−6ююв81795100 0.8 1009658
09:00−5ююв81694100 1.9 1008721
12:00−3ююв81593100 0.4 1006699
15:00−1ююв61397100 0.9 1004698
18:00−3зюз61191100 2.9 1006664
21:00−7ююз5129476 3.0 1008285
22 января, сб
сб2200:00−5ююз61089100 0.1 1009505
03:00−5ююз5989100 0.1 1010629
06:00−9ю5109689 0.0 1012205
09:00−12ю399777 0.1 1014149
12:00−9ю389526 0.0 1015229
15:00−8юв34965 0.0 101670
18:00−14ююв229973 0.0 101835
21:00−16ююв22100100 0.0 102013